Date String (YYYY-MM-DD hh:mm:ss) UTC,Instrument flags,absolute air pressure of the measurement (hPa),sample flow rate (lpm),inlet stack bypass flow (lpm),air temperature of the measurement (°C),ambient temperature measured by the external sensor (°C),aerosol sample conditioner tube jacket temperature (°C),OPC LED temperature (°C),internal box temperature (°C),relative humidity of the measurement (%),span deviation,mass concentration of particles derived from Lorenz-Mie calculation of OPC scattering (μg/m³),mass concentration of particles derived from Lorenz-Mie calculation of OPC scattering (μg/m³),mass concentration of particles derived from Lorenz-Mie calculation of OPC scattering (μg/m³)
DateTimeUTC,F1_M11,P_M11,Q1_M11,Q2_M11,T1_M11,T2_M11,T3_M11,T4_M11,T5_M11,U1_M11,ZSPAN_M11,X2_M11,X0_M11,X1_M11
2023-08-23 03:00:00,SystemResetWarning,0833.6,4.99,000.00,027.5,026.1,000.0,035.8,029.3,25.1,0001.6,0007.30,0015.74,0006.41
2023-08-23 03:01:00,SystemResetWarning,0833.6,5.00,000.00,027.5,026.3,000.0,035.8,029.4,25.0,0001.9,0007.33,0016.66,0006.43
2023-08-23 03:02:00,SystemResetWarning,0833.6,5.00,000.00,027.6,026.5,000.0,035.8,029.5,25.0,0001.8,0007.35,0016.53,0006.42
2023-08-23 03:03:00,SystemResetWarning,0833.6,5.00,000.00,027.6,025.5,000.0,035.8,029.3,24.9,0001.9,0007.36,0016.49,0006.43
2023-08-23 03:04:00,SystemResetWarning,0833.6,5.00,000.00,027.5,023.9,000.0,035.7,028.9,25.0,0001.9,0007.35,0016.33,0006.42
2023-08-23 03:05:00,SystemResetWarning,0833.5,5.01,000.00,027.4,023.5,000.0,035.6,028.7,25.2,0001.9,0007.38,0016.33,0006.42
2023-08-23 03:06:00,SystemResetWarning,0833.6,5.01,000.00,027.3,023.8,000.0,035.6,028.7,25.3,0001.6,0007.39,0016.42,0006.42
2023-08-23 03:07:00,SystemResetWarning,0833.6,4.99,000.00,027.3,024.2,000.0,035.6,028.8,25.4,0001.4,0007.40,0015.74,0006.43
2023-08-23 03:08:00,SystemResetWarning,0833.6,4.99,000.00,027.3,024.7,000.0,035.7,028.9,25.4,0001.2,0007.39,0015.32,0006.42
2023-08-23 03:09:00,SystemResetWarning,0833.7,5.00,000.00,027.3,025.2,000.0,035.7,029.0,25.4,0001.1,0007.43,0015.30,0006.42
2023-08-23 03:10:00,SystemResetWarning,0833.7,5.00,000.00,027.4,025.5,000.0,035.7,029.1,25.4,0001.1,0007.43,0014.56,0006.43
2023-08-23 03:11:00,SystemResetWarning,0833.7,5.00,000.00,027.4,025.9,000.0,035.8,029.3,25.3,0001.2,0007.44,0014.28,0006.43
2023-08-23 03:12:00,SystemResetWarning,0833.7,5.00,000.00,027.5,026.1,000.0,035.8,029.3,25.3,0000.7,0007.46,0013.77,0006.42
2023-08-23 03:13:00,SystemResetWarning,0833.7,5.00,000.00,027.6,026.4,000.0,035.8,029.4,25.2,0000.6,0007.48,0014.09,0006.42
2023-08-23 03:14:00,SystemResetWarning,0833.7,5.00,000.00,027.6,026.4,000.0,035.8,029.4,25.0,0000.5,0007.45,0013.89,0006.40
2023-08-23 03:15:00,SystemResetWarning,0833.7,4.98,000.00,027.6,025.0,000.0,035.7,029.2,25.0,0000.5,0007.43,0013.64,0006.41
2023-08-23 03:16:00,SystemResetWarning,0833.7,5.00,000.00,027.5,023.5,000.0,035.6,028.9,25.0,0000.7,0007.40,0013.86,0006.39
2023-08-23 03:17:00,SystemResetWarning,0833.7,5.01,000.00,027.4,023.5,000.0,035.6,028.7,25.1,0000.9,0007.36,0013.58,0006.37
2023-08-23 03:18:00,SystemResetWarning,0833.7,5.00,000.00,027.3,023.9,000.0,035.6,028.8,25.3,0001.2,0007.42,0013.56,0006.37
2023-08-23 03:19:00,SystemResetWarning,0833.7,5.00,000.00,027.3,024.3,000.0,035.7,028.9,25.3,0001.5,0007.44,0013.71,0006.38
2023-08-23 03:20:00,SystemResetWarning,0833.7,5.00,000.00,027.3,024.8,000.0,035.7,029.0,25.2,0001.5,0007.42,0013.70,0006.39
2023-08-23 03:21:00,SystemResetWarning,0833.7,5.00,000.00,027.4,025.2,000.0,035.7,029.1,25.1,0001.8,0007.43,0013.61,0006.40
2023-08-23 03:22:00,SystemResetWarning,0833.7,5.00,000.00,027.4,025.6,000.0,035.8,029.2,25.1,0002.2,0007.43,0013.67,0006.42
2023-08-23 03:23:00,SystemResetWarning,0833.7,5.00,000.00,027.5,025.9,000.0,035.8,029.3,25.0,0002.3,0007.44,0013.75,0006.45
2023-08-23 03:24:00,SystemResetWarning,0833.7,5.00,000.00,027.5,026.2,000.0,035.8,029.4,24.8,0002.1,0007.40,0012.91,0006.47
2023-08-23 03:25:00,SystemResetWarning,0833.7,5.00,000.00,027.6,026.4,000.0,035.9,029.4,24.7,0002.2,0007.39,0013.19,0006.49
2023-08-23 03:26:00,SystemResetWarning,0833.7,5.00,000.00,027.6,026.6,000.0,035.9,029.5,24.6,0002.4,0007.43,0013.74,0006.51
2023-08-23 03:27:00,SystemResetWarning,0833.7,4.98,000.00,027.7,025.5,000.0,035.8,029.3,24.5,0001.9,0007.47,0013.31,0006.54
2023-08-23 03:28:00,SystemResetWarning,0833.7,5.00,000.00,027.6,023.8,000.0,035.7,028.9,24.6,0001.4,0007.52,0013.23,0006.57
2023-08-23 03:29:00,SystemResetWarning,0833.7,5.02,000.00,027.5,023.5,000.0,035.6,028.8,24.7,0001.4,0007.58,0013.33,0006.61
2023-08-23 03:30:00,SystemResetWarning,0833.7,5.01,000.00,027.4,023.8,000.0,035.7,028.7,24.7,0001.2,0007.54,0013.14,0006.62
2023-08-23 03:31:00,SystemResetWarning,0833.6,5.00,000.00,027.3,024.2,000.0,035.7,028.9,24.8,0001.2,0007.56,0012.98,0006.63
2023-08-23 03:32:00,SystemResetWarning,0833.7,5.00,000.00,027.4,024.7,000.0,035.7,029.0,24.9,0001.2,0007.58,0013.28,0006.66
2023-08-23 03:33:00,SystemResetWarning,0833.7,5.00,000.00,027.4,025.1,000.0,035.8,029.1,24.7,0000.9,0007.62,0013.69,0006.67
2023-08-23 03:34:00,SystemResetWarning,0833.7,5.00,000.00,027.4,025.5,000.0,035.8,029.2,24.7,0000.5,0007.67,0013.51,0006.68
2023-08-23 03:35:00,SystemResetWarning,0833.7,5.00,000.00,027.5,025.8,000.0,035.8,029.3,24.7,0000.6,0007.65,0013.46,0006.68
2023-08-23 03:36:00,SystemResetWarning,0833.7,5.00,000.00,027.5,026.1,000.0,035.8,029.4,24.6,0000.6,0007.67,0013.50,0006.70
2023-08-23 03:37:00,SystemResetWarning,0833.8,5.00,000.00,027.6,026.3,000.0,035.9,029.4,24.5,0000.4,0007.63,0012.76,0006.69
2023-08-23 03:38:00,SystemResetWarning,0833.7,5.00,000.00,027.6,026.5,000.0,035.9,029.5,24.5,0000.4,0007.61,0012.41,0006.70
2023-08-23 03:39:00,SystemResetWarning,0833.8,5.00,000.00,027.7,026.6,000.0,035.9,029.6,24.4,0001.0,0007.60,0012.66,0006.72
2023-08-23 03:40:00,SystemResetWarning,0833.7,4.98,000.00,027.7,025.3,000.0,035.9,029.2,24.4,0001.1,0007.55,0013.08,0006.71
2023-08-23 03:41:00,SystemResetWarning,0833.7,5.01,000.00,027.6,023.7,000.0,035.7,028.9,24.4,0001.5,0007.53,0013.16,0006.71
2023-08-23 03:42:00,SystemResetWarning,0833.7,5.01,000.00,027.5,023.5,000.0,035.7,028.8,24.6,0001.5,0007.56,0013.25,0006.74
2023-08-23 03:43:00,SystemResetWarning,0833.7,4.99,000.00,027.4,023.9,000.0,035.7,028.8,24.6,0001.7,0007.60,0013.23,0006.77
2023-08-23 03:44:00,SystemResetWarning,0833.7,5.00,000.00,027.4,024.3,000.0,035.7,028.9,24.6,0001.8,0007.60,0012.88,0006.76
2023-08-23 03:45:00,SystemResetWarning,0833.7,5.00,000.00,027.4,024.8,000.0,035.8,029.0,24.7,0001.9,0007.58,0012.74,0006.74
2023-08-23 03:46:00,SystemResetWarning,0833.7,5.00,000.00,027.4,025.2,000.0,035.8,029.1,24.8,0002.1,0007.59,0012.79,0006.75
2023-08-23 03:47:00,SystemResetWarning,0833.7,4.99,000.00,027.5,025.6,000.0,035.8,029.2,24.5,0002.1,0007.61,0013.33,0006.75
2023-08-23 03:48:00,SystemResetWarning,0833.8,5.01,000.00,027.5,025.9,000.0,035.9,029.3,24.3,0002.1,0007.63,0013.37,0006.77
2023-08-23 03:49:00,SystemResetWarning,0833.7,5.01,000.00,027.6,026.1,000.0,035.9,029.4,24.3,0002.1,0007.62,0013.80,0006.77
2023-08-23 03:50:00,SystemResetWarning,0833.8,5.00,000.00,027.6,026.4,000.0,035.9,029.4,24.4,0002.1,0007.59,0013.74,0006.76
2023-08-23 03:51:00,SystemResetWarning,0833.8,5.00,000.00,027.7,026.6,000.0,035.9,029.5,24.4,0001.9,0007.60,0013.28,0006.76
2023-08-23 03:52:00,SystemResetWarning,0833.8,5.00,000.00,027.7,026.5,000.0,035.9,029.5,24.3,0001.5,0007.60,0013.65,0006.76
2023-08-23 03:53:00,SystemResetWarning,0833.8,5.00,000.00,027.7,024.8,000.0,035.8,029.2,24.2,0001.4,0007.59,0013.65,0006.74
2023-08-23 03:54:00,SystemResetWarning,0833.7,5.00,000.00,027.6,023.5,000.0,035.7,028.9,24.4,0001.0,0007.54,0013.55,0006.70
2023-08-23 03:55:00,SystemResetWarning,0833.7,5.01,000.00,027.5,023.6,000.0,035.7,028.8,24.6,0000.9,0007.51,0013.95,0006.67
2023-08-23 03:56:00,SystemResetWarning,0833.7,5.01,000.00,027.4,023.9,000.0,035.8,028.8,24.7,0000.8,0007.44,0014.05,0006.65
2023-08-23 03:57:00,SystemResetWarning,0833.7,4.99,000.00,027.4,024.4,000.0,035.8,028.9,24.7,0000.6,0007.41,0013.92,0006.64
2023-08-23 03:58:00,SystemResetWarning,0833.7,5.00,000.00,027.4,024.9,000.0,035.8,029.0,24.7,0000.7,0007.36,0013.26,0006.61
2023-08-23 03:59:00,SystemResetWarning,0833.8,5.01,000.00,027.4,025.3,000.0,035.8,029.1,24.7,0001.0,0007.35,0013.27,0006.58
